Weather in San Francisco

United States     37°45′33″N   122°26′49″W
temp.,
°C
wind,
m/s
gust,
m/s
humid.,
%
clouds,
%
prec.,
mm/h
press.,
hPa
HPBL,
m
12 may, wed
wed1223:00+12sw33801 0.0 101373
02:00+12sw34843 0.0 1014107
05:00+11sw33875 0.0 101483
08:00+12sw33821 0.0 1015126
11:00+15sw557025 0.0 1016282
14:00+16wsw676931 0.0 1016286
17:00+15wsw787213 0.0 1015260
20:00+13wsw468110 0.0 1016181
13 may, thu
thu1323:00+12sw458318 0.0 1016129
02:00+12sw45885 0.0 1016138
05:00+11sw359162 0.0 1016128
08:00+12sw34856 0.0 1017167
11:00+14wsw56729 0.0 1017301
14:00+15wsw787117 0.0 1016303
17:00+12wsw788022 0.0 1016277
20:00+11wsw689053 0.0 1015310
14 may, fri
fri1423:00+11wsw678871 0.1 1015339
02:00+11sw578879 0.0 1014349
05:00+10sw459158 0.0 1014276
08:00+11wsw458781 0.0 1014290
11:00+12w687919 0.0 1014318
14:00+12w10137726 0.0 1014392
17:00+12w101382100 0.0 1013508
20:00+11w101384100 0.0 1013593
15 may, sat
sat1523:00+11wsw8128647 0.1 1012506
02:00+11w8108596 0.0 1012590
05:00+10w578947 0.1 1011368
08:00+10ssw5686100 0.1 1012457
11:00+12s337633 0.1 1013368
14:00+14sw657313 0.0 1012441
17:00+12wsw688152 0.0 1011368
20:00+11sw678768 0.0 1012346
16 may, sun
sun1623:00+11sw578698 0.1 1012435
02:00+11sw678895 0.1 1012405
05:00+11sw679099 0.2 1012423
08:00+11ssw558699 0.2 1014425
11:00+13sw567850 0.2 1014450
14:00+13wsw787510 0.0 1015478
17:00+12wsw688027 0.0 1014440
20:00+12sw688379 0.0 1015376